Weather History for Savoonga, AK

Change the Weather History Date:

Wednesday, November 21, 2012

  Actual Average Record
Temperature  
Mean Temperature 22 °F -  
Max Temperature 26 °F 25 °F 41 °F (2010)
Min Temperature 17 °F 19 °F 12 °F (2007)
Degree Days  
Heating Degree Days 44    
Moisture  
Dew Point 18 °F    
Average Humidity 78    
Maximum Humidity 93    
Minimum Humidity 69    
Precipitation  
Precipitation 0.00 in - - ()
Sea Level Pressure  
Sea Level Pressure 30.29 in    
Wind  
Wind Speed 5 mph (North)    
Max Wind Speed 9 mph    
Max Gust Speed -    
Visibility 10 miles    
Events      
Averages and records for this station are not official NWS values.
T = Trace of Precipitation, MM = Missing Value Source: NWS Daily Summary

Daily Weather History Graph

Daily Weather History Graph

Search for Another Location

Airport:

Trip Planner

Search our weather history database for the weather conditions in past years. The results will help you decide how hot, cold, wet, or windy it might be!

Date:

Astronomy

Nov. 21, 2012 Rise Set
Actual Time 11:07 AM AKST 5:07 PM AKST
Civil Twilight 10:05 AM AKST 6:10 PM AKST
Nautical Twilight 9:03 AM AKST 7:11 PM AKST
Astronomical Twilight 8:07 AM AKST 8:07 PM AKST
Moon 3:27 PM AKST (11/21) 2:32 AM AKST (11/21)
Length of Visible Light 8h 04m
Length of Day
5h 59m
Waxing Gibbous, 63% of the Moon is Illuminated
Nov 21
Waxing Gibbous
Nov 28
Full
Dec 6
Last Quarter
Dec 12
New
Dec 19
First Quarter

Hourly Weather History & Observations

Time (AKST) Temp. Windchill Dew Point Humidity Pressure Visibility Wind Dir Wind Speed Gust Speed Precip Events Conditions
12:16 AM 21.2 °F 14.9 °F 17.6 °F 86% 30.27 in 10.0 mi WSW 4.6 mph - N/A   Overcast
12:36 AM 26.6 °F 22.6 °F 21.2 °F 80% 30.28 in 10.0 mi NW 3.5 mph - N/A   Overcast
12:56 AM 21.2 °F - 19.4 °F 93% 30.28 in 10.0 mi Calm Calm - N/A   Overcast
1:16 AM 24.8 °F 16.1 °F 17.6 °F 74% 30.28 in 10.0 mi North 8.1 mph - N/A   Mostly Cloudy
1:36 AM 24.8 °F 16.9 °F 15.8 °F 69% 30.28 in 10.0 mi NNW 6.9 mph - N/A   Mostly Cloudy
1:56 AM 24.8 °F 16.9 °F 17.6 °F 74% 30.28 in 10.0 mi NNW 6.9 mph - N/A   Partly Cloudy
2:16 AM 24.8 °F 16.9 °F 15.8 °F 69% 30.28 in 10.0 mi NNW 6.9 mph - N/A   Clear
2:36 AM 23.0 °F 14.7 °F 17.6 °F 80% 30.28 in 10.0 mi NW 6.9 mph - N/A   Clear
2:56 AM 24.8 °F 16.9 °F 17.6 °F 74% 30.28 in 10.0 mi NW 6.9 mph - N/A   Clear
3:16 AM 24.8 °F 17.9 °F 17.6 °F 74% 30.28 in 10.0 mi NW 5.8 mph - N/A   Clear
3:36 AM 23.0 °F 14.7 °F 17.6 °F 80% 30.28 in 10.0 mi NW 6.9 mph - N/A   Clear
3:56 AM 23.0 °F 14.7 °F 17.6 °F 80% 30.29 in 10.0 mi WNW 6.9 mph - N/A   Clear
4:16 AM 24.8 °F 19.1 °F 17.6 °F 74% 30.28 in 10.0 mi WNW 4.6 mph - N/A   Clear
4:36 AM 17.6 °F 12.3 °F 15.8 °F 93% 30.28 in 10.0 mi SSW 3.5 mph - N/A   Clear
4:56 AM 17.6 °F - 15.8 °F 93% 30.28 in 10.0 mi Calm Calm - N/A   Mostly Cloudy
5:16 AM 24.8 °F 17.9 °F 19.4 °F 80% 30.28 in 10.0 mi NW 5.8 mph - N/A   Overcast
5:36 AM 24.8 °F 17.9 °F 19.4 °F 80% 30.28 in 10.0 mi NW 5.8 mph - N/A   Overcast
5:56 AM 24.8 °F 16.9 °F 21.2 °F 86% 30.28 in 10.0 mi NW 6.9 mph - N/A   Overcast
6:16 AM 24.8 °F 16.1 °F 21.2 °F 86% 30.28 in 10.0 mi NNW 8.1 mph - N/A   Overcast
6:36 AM 24.8 °F 16.9 °F 21.2 °F 86% 30.28 in 10.0 mi NNW 6.9 mph - N/A   Overcast
6:56 AM 24.8 °F 16.1 °F 19.4 °F 80% 30.28 in 10.0 mi North 8.1 mph - N/A   Overcast
7:16 AM 24.8 °F 17.9 °F 19.4 °F 80% 30.28 in 10.0 mi NNW 5.8 mph - N/A   Overcast
7:36 AM 24.8 °F 17.9 °F 19.4 °F 80% 30.27 in 10.0 mi North 5.8 mph - N/A   Overcast
7:56 AM 24.8 °F 17.9 °F 19.4 °F 80% 30.27 in 10.0 mi North 5.8 mph - N/A   Overcast
8:16 AM 24.8 °F 16.9 °F 19.4 °F 80% 30.28 in 10.0 mi North 6.9 mph - N/A   Overcast
8:36 AM 24.8 °F 17.9 °F 21.2 °F 86% 30.27 in 10.0 mi NNW 5.8 mph - N/A   Overcast
8:56 AM 24.8 °F 19.1 °F 21.2 °F 86% 30.27 in 10.0 mi North 4.6 mph - N/A   Overcast
9:16 AM 26.6 °F 19.1 °F 21.2 °F 80% 30.27 in 10.0 mi NNE 6.9 mph - N/A   Overcast
9:36 AM 24.8 °F 17.9 °F 19.4 °F 80% 30.27 in 10.0 mi North 5.8 mph - N/A   Overcast
9:56 AM 26.6 °F 21.2 °F 17.6 °F 69% 30.28 in 10.0 mi North 4.6 mph - N/A   Overcast
10:16 AM 24.8 °F 19.1 °F 19.4 °F 80% 30.28 in 10.0 mi NNE 4.6 mph - N/A   Overcast
10:36 AM 26.6 °F 20.0 °F 19.4 °F 74% 30.28 in 10.0 mi North 5.8 mph - N/A   Overcast
10:56 AM 24.8 °F 19.1 °F 19.4 °F 80% 30.28 in 10.0 mi North 4.6 mph - N/A   Overcast
11:16 AM 26.6 °F 21.2 °F 17.6 °F 69% 30.29 in 10.0 mi NNE 4.6 mph - N/A   Overcast
11:36 AM 24.8 °F 17.9 °F 17.6 °F 74% 30.29 in 10.0 mi North 5.8 mph - N/A   Overcast
11:56 AM 24.8 °F 16.1 °F 19.4 °F 80% 30.29 in 10.0 mi North 8.1 mph - N/A   Overcast
12:16 PM 24.8 °F 16.9 °F 17.6 °F 74% 30.29 in 10.0 mi NNE 6.9 mph - N/A   Overcast
12:36 PM 24.8 °F 17.9 °F 17.6 °F 74% 30.29 in 10.0 mi North 5.8 mph - N/A   Partly Cloudy
12:56 PM 24.8 °F 17.9 °F 17.6 °F 74% 30.29 in 10.0 mi North 5.8 mph - N/A   Clear
1:16 PM 24.8 °F 20.5 °F 17.6 °F 74% 30.29 in 10.0 mi North 3.5 mph - N/A   Clear
1:36 PM 24.8 °F 17.9 °F 19.4 °F 80% 30.29 in 10.0 mi North 5.8 mph - N/A   Partly Cloudy
1:56 PM 24.8 °F 17.9 °F 19.4 °F 80% 30.29 in 10.0 mi North 5.8 mph - N/A   Scattered Clouds
2:16 PM 24.8 °F 17.9 °F 19.4 °F 80% 30.29 in 10.0 mi North 5.8 mph - N/A   Mostly Cloudy
2:36 PM 24.8 °F 16.9 °F 19.4 °F 80% 30.30 in 10.0 mi North 6.9 mph - N/A   Overcast
2:56 PM 24.8 °F 17.9 °F 17.6 °F 74% 30.30 in 10.0 mi North 5.8 mph - N/A   Mostly Cloudy
3:16 PM 24.8 °F 17.9 °F 17.6 °F 74% 30.30 in 10.0 mi NNW 5.8 mph - N/A   Mostly Cloudy
3:36 PM 24.8 °F 17.9 °F 17.6 °F 74% 30.30 in 10.0 mi NW 5.8 mph - N/A   Overcast
3:56 PM 24.8 °F 17.9 °F 17.6 °F 74% 30.30 in 10.0 mi NNW 5.8 mph - N/A   Overcast
4:16 PM 24.8 °F 19.1 °F 19.4 °F 80% 30.29 in 10.0 mi NNE 4.6 mph - N/A   Overcast
4:36 PM 24.8 °F 17.9 °F 17.6 °F 74% 30.30 in 10.0 mi NNE 5.8 mph - N/A   Overcast
4:56 PM 24.8 °F - 17.6 °F 74% 30.30 in 10.0 mi Calm Calm - N/A   Overcast
5:16 PM 24.8 °F 20.5 °F 17.6 °F 74% 30.30 in 10.0 mi NNE 3.5 mph - N/A   Overcast
5:36 PM 24.8 °F 19.1 °F 17.6 °F 74% 30.30 in 10.0 mi North 4.6 mph - N/A   Overcast
5:56 PM 24.8 °F 17.9 °F 15.8 °F 69% 30.30 in 10.0 mi NE 5.8 mph - N/A   Mostly Cloudy
6:16 PM 24.8 °F 17.9 °F 15.8 °F 69% 30.30 in 10.0 mi NNE 5.8 mph - N/A   Partly Cloudy
6:36 PM 23.0 °F 14.7 °F 15.8 °F 74% 30.30 in 10.0 mi NNE 6.9 mph - N/A   Partly Cloudy
6:56 PM 24.8 °F 19.1 °F 17.6 °F 74% 30.31 in 10.0 mi NNE 4.6 mph - N/A   Mostly Cloudy
7:16 PM 24.8 °F 19.1 °F 17.6 °F 74% 30.31 in 10.0 mi NNE 4.6 mph - N/A   Overcast
7:36 PM 24.8 °F 16.1 °F 17.6 °F 74% 30.31 in 10.0 mi NNE 8.1 mph - N/A   Overcast
7:56 PM 24.8 °F 17.9 °F 17.6 °F 74% 30.32 in 10.0 mi NE 5.8 mph - N/A   Overcast
8:16 PM 24.8 °F 16.1 °F 17.6 °F 74% 30.31 in 10.0 mi NE 8.1 mph - N/A   Overcast
8:36 PM 24.8 °F 17.9 °F 17.6 °F 74% 30.31 in 10.0 mi NE 5.8 mph - N/A   Mostly Cloudy
8:56 PM 23.0 °F 15.8 °F 17.6 °F 80% 30.31 in 10.0 mi NE 5.8 mph - N/A   Mostly Cloudy
9:16 PM 23.0 °F 14.7 °F 17.6 °F 80% 30.31 in 10.0 mi NE 6.9 mph - N/A   Overcast
9:36 PM 24.8 °F 17.9 °F 17.6 °F 74% 30.31 in 10.0 mi ENE 5.8 mph - N/A   Overcast
9:56 PM 23.0 °F 13.1 °F 19.4 °F 86% 30.31 in 10.0 mi ENE 9.2 mph - N/A   Overcast
10:16 PM 23.0 °F 15.8 °F 19.4 °F 86% 30.32 in 10.0 mi NNE 5.8 mph - N/A   Overcast
10:36 PM 23.0 °F - 17.6 °F 80% 30.32 in 10.0 mi Calm Calm - N/A   Overcast
10:56 PM 24.8 °F 16.9 °F 19.4 °F 80% 30.32 in 10.0 mi NE 6.9 mph - N/A   Overcast
11:16 PM 24.8 °F 16.9 °F 19.4 °F 80% 30.33 in 10.0 mi ENE 6.9 mph - N/A   Overcast
11:36 PM 24.8 °F 16.1 °F 19.4 °F 80% 30.33 in 10.0 mi ENE 8.1 mph - N/A   Overcast
11:56 PM 23.0 °F 14.7 °F 19.4 °F 86% 30.33 in 10.0 mi ENE 6.9 mph - N/A   Overcast